CZ-6A DEB

Satellite information

Favourite Embed

Satellite Type and Status

DEBRISIN ORBIT

Key statistics

Satellite CZ-6A DEB at a glance.

Uptime

1073

Days in orbit

Revolutions

≈ 14.3

Per day

Orbit

SSO

Sun Synchronous Orbit

Inclination

98.9

Latest

Satellite identification and parameters

Extended collection of information and parameters for CZ-6A DEB.

Object identification

Identified? True

Debris? True

Object name: CZ-6A DEB

International designator: 2022-151AHV

Object number (NORAD): 57578

Object ID (CCSDS): 57578

Country: PEOPLES REPUBLIC OF CHINA (PRC)

Current information (Y/N): Y

RCS size: SMALL

Orbital parameters

Period: 100.62 minutes

Inclination: 98.87 deg

SMA: 7166.12 km

Apoapsis: 820.471 km

Periapsis: 755.499 km

RAAN: 330.4275 deg

Eccentricy: 0.00453327

Argument of periapsis: 335.4677 deg

Mean anomaly: 24.4348 deg

Mean motion: 14.31122051 rev/day

Mean motion (dot): 0.00001977 rev/day2

B* drag term: 0.00075868936 1/REarth

Two-line elements (TLE)

Creation date: Oct. 15, 2025, 6:23 p.m.

Reference frame: TEME

Reference center: EARTH

Epoch: Oct. 15, 2025, 9:10 a.m. UTC

TLE line 0: 0 CZ-6A DEB

TLE line 1: 1 57578U 22151AHV 25288.38220497 .00001977 00000-0 75869-3 0 9995

TLE line 2: 2 57578 98.8700 330.4275 0045333 335.4677 24.4348 14.31122051129099

Live tracking on map

Real-time ground track for satellite CZ-6A DEB.

In-orbit conjunctions

A list of the most updated potential collisions computed for object CZ-6A DEB.

Target Orbit TCA Probability of collision Miss distance Type
METEOR 2-5 DEB LEO 2025-08-11 08:56:36 0.0001042714 163.0 (m) DEBRIS
SL-8 R/B LEO 2025-08-08 02:28:10 0.000643326 169.0 (m) ROCKET BODY
DMSP 5D-2 F8 DEB SSO 2025-06-22 03:42:51 0.0001220119 135.0 (m) DEBRIS
FENGYUN 1C DEB SSO 2024-07-06 05:39:13 0.0001418294 251.0 (m) DEBRIS

Associated space launch

Chinese satellite reported for atmospheric/ocean/environmental/spatial parameter research purposes, details TBD.

CZ-6A DEB was lifted into orbit during the mission ‘Long March 6A | Yunhai 3’, on board a Long March 6A space rocket.

The launch took place on Nov. 11, 2022, 10:52 p.m. from Launch Complex 9A.

For more information about the launch, click the button.

Launch to space Long March 6A | Yunhai 3
Long March 6A | Yunhai 3

Agency: N/A

Status: Launch Successful

Launch date: Nov. 11, 2022, 10:52 p.m. UTC

Rocket: Long March 6A

Launch pad: Launch Complex 9A

Location: Taiyuan Satellite Launch Center, People's Republic of China

...

Latest news about this satellite

There are no fresh news available about this satellite. Check back as we update our databases every day.


Newsletter sign-up

Weekly statistics, charts and insights to help you stay on top of the space industry.